{"data":{"norad_id":61693,"intl_designator":"2024-195G","name":"STARLINK-11366 [DTC]","alt_names":[],"object_type":"PAYLOAD","status":"ACTIVE","operator":null,"country":"US","launch_date":"2024-10-30","launch_site_code":"AFWTR","launch_vehicle":null,"mission":null,"orbit_class":"UNKNOWN","rcs_meters":null,"size_class":null,"mass_kg":null,"dimensions":null,"purposes":["comms"],"wikipedia_slug":null,"has_3d_model":false,"image_url":null,"decayed_at":null,"tle_current":{"epoch":"2026-09-21T20:32:44.847168Z","epoch_age_seconds":71402,"freshness":"FRESH","line1":"1 61693U 24195G   26264.85607462 -.00000451  00000+0  11319-5 0  9994","line2":"2 61693  53.1590 139.2384 0000979  82.7979 277.3150 15.69706925109844","mean_motion":15.69706925,"eccentricity":9.79e-5,"inclination_deg":53.159,"raan_deg":139.2384,"arg_perigee_deg":82.7979,"mean_anomaly_deg":277.315,"bstar":1.1319e-6,"rev_number":10984,"period_min":91.736869925575,"perigee_km":359.07591218446,"apogee_km":360.39518762974,"semimajor_km":6737.8725499071,"source":"CELESTRAK","updated_at":"2026-09-22T09:00:49.407120Z"}}}